sat.trackr.live / text

‹ back to catalog

STARLINK-32842

NORAD 62822 · 2025-018S

PAYLOAD ACTIVE UNKNOWN

§ Identity

Operator
Country
US
Launch date
2025-01-24
Launch site
AFWTR
Launch vehicle
Mass (kg)
RCS (m²)

Purposes: comms

External: N2YO · Heavens-Above · Gunter

§ Orbital elements

Epoch: 2026-05-25T04:52:16.551840Z

Period
94.11 min
Inclination
53.1593°
Eccentricity
0.0001347
Mean motion
15.30203630 rev/d
Perigee alt
474.3 km
Apogee alt
476.1 km
Semi-major
6,853.3 km
B*
5.9556e-4
RAAN
314.1449°
Arg perigee
105.9667°
Mean anomaly
254.1483°
Rev number
7,489

§ Raw data

STARLINK-328421 62822U 25018S   26145.20296935  .00017323  00000+0  59556-3 0  99982 62822  53.1593 314.1449 0001347 105.9667 254.1483 15.30203630 74891

JSON: /api/v1/satellites/62822 · /tle

For live sub-satellite position, see the globe view (requires WebGL).

§ Visibility from observer

Set your observer location to see the next 7 days of passes ≥ 10°. The values pass through the URL so the page stays shareable.

No JS? Fill the form by hand. The geolocation button needs JavaScript.